QPF
0.00 0.00 0.00 0.00 0.01 0.00 0.00 0.00 0.00 0.00 0.00 0.00 0.00 0.00 0.00 0.00 0.00 0.00 0.00 0.00 0.00 0.00 0.00 0.00 0.00 0.00 0.00 0.00 0.00 0.00 0.00 0.01 0.01 0.00 0.00 0.00 0.00 0.00 0.01 0.04 0.05 0.08 0.07
0.00 0.00 0.00 0.00 0.00 0.00 0.00 0.00 0.00 0.00 0.00 0.00 0.00 0.00 0.00 0.00 0.00 0.00 0.00 0.00 0.03 0.01 0.03 0.00 0.00 0.00 0.00 0.00 0.00 0.00 0.00 0.01 0.01 0.00 0.00 0.00 0.00 0.00 0.02 0.06 0.06 0.02 0.04
0.00 0.00 0.00 0.00 0.00 0.00 0.00 0.00 0.00 0.00 0.00 0.00 0.00 0.00 0.00 0.00 0.00 0.00 0.00 0.05 0.03 0.01 0.00 0.00 0.00 0.00 0.00 0.00 0.00 0.00 0.00 0.00 0.00 0.00 0.00 0.00 0.00 0.01 0.01 0.02 0.03 0.02 0.03
0.00 0.00 0.00 0.00 0.00 0.00 0.00 0.00 0.00 0.00 0.00 0.00 0.00 0.00 0.00 0.00 0.00 0.00 0.00 0.01 0.00 0.00 0.00 0.00 0.00 0.00 0.00 0.00 0.01 0.01 0.01 0.00 0.00 0.00 0.00 0.00 0.00 0.01 0.01 0.00 0.01 0.01 0.01
0.00 0.00 0.00 0.00 0.00 0.00 0.00 0.00 0.00 0.00 0.00 0.00 0.00 0.00 0.00 0.00 0.00 0.00 0.00 0.00 0.00 0.00 0.00 0.00 0.00 0.00 0.00 0.00 0.00 0.00 0.00 0.00 0.00 0.00 0.00 0.00 0.00 0.01 0.01 0.00 0.01 0.01 0.00
0.00 0.00 0.00 0.00 0.00 0.00 0.00 0.00 0.00 0.00 0.00 0.00 0.00 0.00 0.00 0.00 0.00 0.00 0.00 0.00 0.00 0.00 0.00 0.00 0.00 0.00 0.00 0.00 0.00 0.00 0.00 0.00 0.00 0.00 0.00 0.00 0.00 0.00 0.02 0.01 0.00 0.00 0.00
0.00 0.00 0.00 0.00 0.00 0.00 0.00 0.00 0.00 0.00 0.00 0.00 0.00 0.00 0.00 0.00 0.00 0.00 0.00 0.00 0.00 0.00 0.00 0.00 0.00 0.00 0.00 0.00 0.00 0.00 0.00 0.00 0.00 0.00 0.00 0.00 0.00 0.02 0.05 0.03 0.01 0.00 0.00
0.00 0.00 0.00 0.00 0.00 0.00 0.00 0.00 0.00 0.00 0.00 0.00 0.00 0.00 0.00 0.00 0.00 0.00 0.00 0.00 0.00 0.00 0.00 0.00 0.00 0.00 0.00 0.00 0.00 0.00 0.00 0.00 0.00 0.01 0.07 0.07 0.01 0.01 0.05 0.04 0.01 0.00 0.00
0.00 0.00 0.00 0.00 0.00 0.00 0.00 0.00 0.00 0.00 0.00 0.00 0.00 0.00 0.00 0.00 0.00 0.00 0.00 0.00 0.00 0.00 0.00 0.00 0.00 0.00 0.00 0.00 0.00 0.00 0.00 0.00 0.05 0.05 0.03 0.02 0.01 0.04 0.05 0.05 0.02 0.00 0.00
0.00 0.00 0.00 0.00 0.00 0.00 0.00 0.00 0.00 0.00 0.00 0.00 0.00 0.00 0.00 0.00 0.00 0.00 0.00 0.00 0.00 0.00 0.00 0.00 0.00 0.00 0.00 0.00 0.00 0.00 0.00 0.00 0.02 0.04 0.04 0.02 0.01 0.05 0.06 0.04 0.05 0.04 0.01
0.00 0.00 0.00 0.01 0.00 0.00 0.00 0.00 0.00 0.00 0.00 0.00 0.00 0.00 0.00 0.00 0.00 0.00 0.00 0.00 0.00 0.00 0.00 0.00 0.00 0.00 0.00 0.00 0.00 0.00 0.00 0.00 0.00 0.00 0.00 0.00 0.00 0.02 0.06 0.07 0.07 0.07 0.07
0.01 0.02 0.00 0.00 0.00 0.00 0.00 0.00 0.00 0.00 0.00 0.00 0.00 0.00 0.00 0.00 0.00 0.00 0.00 0.00 0.00 0.00 0.00 0.00 0.00 0.00 0.00 0.00 0.00 0.00 0.00 0.00 0.00 0.00 0.00 0.00 0.00 0.00 0.03 0.08 0.07 0.07 0.08
0.00 0.00 0.00 0.00 0.00 0.00 0.00 0.00 0.00 0.00 0.00 0.00 0.00 0.00 0.00 0.00 0.00 0.00 0.00 0.00 0.00 0.00 0.00 0.00 0.00 0.00 0.00 0.00 0.00 0.00 0.00 0.00 0.00 0.00 0.00 0.00 0.00 0.00 0.01 0.03 0.05 0.06 0.06
0.00 0.00 0.00 0.00 0.00 0.00 0.00 0.00 0.00 0.00 0.00 0.00 0.00 0.00 0.00 0.00 0.00 0.00 0.00 0.00 0.00 0.00 0.00 0.00 0.00 0.00 0.00 0.00 0.00 0.00 0.00 0.00 0.00 0.00 0.00 0.00 0.00 0.00 0.00 0.02 0.03 0.04 0.05
0.00 0.00 0.00 0.00 0.00 0.00 0.00 0.00 0.00 0.00 0.00 0.00 0.00 0.00 0.00 0.00 0.00 0.00 0.00 0.00 0.00 0.00 0.00 0.00 0.00 0.00 0.00 0.00 0.00 0.00 0.00 0.00 0.00 0.00 0.00 0.00 0.00 0.00 0.00 0.01 0.03 0.06 0.12
0.00 0.00 0.00 0.00 0.00 0.00 0.00 0.00 0.00 0.00 0.00 0.00 0.00 0.00 0.00 0.00 0.00 0.00 0.00 0.00 0.00 0.00 0.00 0.00 0.00 0.00 0.00 0.00 0.00 0.00 0.00 0.00 0.00 0.00 0.00 0.00 0.00 0.00 0.00 0.00 0.00 0.01 0.05
0.00 0.00 0.00 0.00 0.00 0.00 0.00 0.00 0.00 0.00 0.00 0.00 0.00 0.00 0.00 0.00 0.00 0.00 0.00 0.00 0.00 0.00 0.00 0.00 0.00 0.00 0.00 0.00 0.00 0.00 0.00 0.00 0.00 0.00 0.00 0.00 0.00 0.00 0.00 0.00 0.00 0.00 0.00
0.00 0.00 0.00 0.00 0.00 0.00 0.00 0.00 0.00 0.00 0.00 0.00 0.00 0.00 0.00 0.00 0.00 0.00 0.00 0.00 0.00 0.00 0.00 0.00 0.00 0.00 0.00 0.00 0.00 0.00 0.00 0.00 0.00 0.00 0.00 0.00 0.00 0.00 0.00 0.00 0.00 0.01 0.01
0.00 0.00 0.00 0.00 0.00 0.00 0.00 0.00 0.00 0.00 0.00 0.00 0.00 0.00 0.00 0.00 0.00 0.00 0.00 0.00 0.00 0.00 0.00 0.00 0.00 0.00 0.00 0.00 0.00 0.00 0.00 0.00 0.00 0.00 0.00 0.00 0.00 0.00 0.00 0.00 0.00 0.01 0.01
0.00 0.00 0.00 0.00 0.00 0.00 0.00 0.00 0.00 0.00 0.00 0.00 0.00 0.00 0.00 0.00 0.00 0.00 0.00 0.00 0.00 0.00 0.00 0.00 0.00 0.00 0.00 0.00 0.00 0.00 0.00 0.00 0.00 0.00 0.00 0.00 0.00 0.00 0.00 0.00 0.00 0.00 0.00
0.00 0.00 0.00 0.00 0.00 0.00 0.00 0.00 0.00 0.00 0.00 0.00 0.00 0.00 0.00 0.00 0.00 0.00 0.00 0.00 0.00 0.00 0.00 0.00 0.00 0.00 0.00 0.00 0.00 0.00 0.00 0.00 0.00 0.00 0.00 0.00 0.00 0.00 0.00 0.00 0.00 0.00 0.00
0.00 0.00 0.00 0.00 0.00 0.00 0.00 0.00 0.00 0.00 0.00 0.00 0.00 0.00 0.00 0.00 0.00 0.00 0.00 0.00 0.00 0.00 0.00 0.00 0.00 0.00 0.00 0.00 0.00 0.00 0.00 0.00 0.00 0.00 0.00 0.00 0.00 0.00 0.00 0.00 0.00 0.00 0.00
0.00 0.00 0.00 0.00 0.00 0.00 0.00 0.00 0.00 0.00 0.00 0.00 0.00 0.00 0.00 0.00 0.00 0.00 0.00 0.00 0.00 0.00 0.00 0.00 0.00 0.00 0.00 0.00 0.00 0.00 0.00 0.00 0.00 0.00 0.00 0.00 0.00 0.00 0.00 0.00 0.00 0.00 0.00
0.00 0.00 0.00 0.00 0.00 0.00 0.00 0.00 0.00 0.00 0.00 0.00 0.00 0.00 0.00 0.00 0.00 0.00 0.00 0.00 0.00 0.00 0.00 0.00 0.00 0.00 0.00 0.00 0.00 0.00 0.00 0.00 0.00 0.00 0.00 0.00 0.00 0.00 0.00 0.00 0.00 0.00 0.00
0.00 0.00 0.00 0.00 0.00 0.00 0.00 0.00 0.00 0.00 0.00 0.00 0.00 0.00 0.00 0.00 0.00 0.00 0.00 0.00 0.00 0.00 0.00 0.00 0.00 0.00 0.00 0.00 0.00 0.00 0.00 0.00 0.00 0.00 0.00 0.00 0.00 0.00 0.00 0.00 0.00 0.00 0.00
0.00 0.00 0.00 0.00 0.00 0.00 0.00 0.00 0.00 0.00 0.00 0.00 0.00 0.00 0.00 0.00 0.00 0.00 0.00 0.00 0.00 0.00 0.00 0.00 0.00 0.00 0.00 0.00 0.00 0.00 0.00 0.00 0.00 0.00 0.00 0.00 0.00 0.00 0.00 0.00 0.00 0.00 0.00
MSLP
1016.36 1015.89 1016.09 1015.82 1015.59 1015.60 1015.25 1015.35 1015.05 1015.05 1015.76 1015.93 1015.62 1015.99 1016.04 1015.63 1015.87 1016.04 1015.90 1015.75 1015.57 1015.58 1015.79 1015.75 1015.74 1015.57 1015.62 1015.34 1015.19 1015.35 1015.92 1016.12 1016.70 1016.54 1016.63 1016.82 1016.86 1016.99 1016.83 1017.28 1017.43 1017.36 1017.70
1016.42 1016.26 1016.20 1016.11 1016.08 1015.79 1015.20 1015.63 1015.60 1016.00 1015.57 1015.81 1016.16 1016.31 1016.48 1016.14 1016.09 1016.18 1016.28 1016.60 1016.66 1016.12 1016.26 1016.43 1015.75 1015.78 1016.06 1015.75 1016.23 1015.41 1015.15 1015.57 1016.30 1016.56 1016.57 1016.53 1016.56 1017.01 1017.14 1017.35 1017.74 1017.67 1017.76
1016.11 1016.01 1016.22 1015.92 1016.39 1015.91 1015.71 1015.74 1016.13 1015.83 1016.03 1016.18 1016.58 1016.60 1016.90 1016.77 1016.69 1016.71 1016.58 1016.88 1016.74 1016.57 1016.57 1016.30 1016.16 1016.13 1016.42 1015.81 1015.66 1015.58 1015.68 1015.04 1015.73 1016.24 1016.59 1016.82 1016.57 1016.60 1016.91 1017.35 1017.72 1017.83 1017.97
1016.52 1016.40 1016.57 1015.91 1016.09 1016.53 1015.84 1016.28 1016.52 1016.29 1016.38 1016.47 1016.79 1016.90 1016.88 1016.99 1016.88 1016.95 1017.04 1017.19 1016.88 1016.82 1016.77 1016.48 1016.40 1016.38 1016.55 1016.11 1015.87 1015.27 1015.66 1015.51 1015.54 1015.96 1016.22 1016.84 1016.74 1016.34 1016.87 1017.43 1017.55 1017.72 1017.75
1016.31 1016.37 1016.70 1016.22 1016.44 1016.64 1016.55 1016.71 1016.84 1016.57 1016.78 1016.86 1017.11 1017.15 1017.03 1017.26 1016.96 1017.07 1017.09 1017.07 1017.04 1016.84 1016.70 1016.66 1016.48 1016.69 1016.84 1016.70 1016.46 1016.18 1015.99 1015.95 1014.75 1016.25 1016.48 1016.42 1016.68 1016.38 1016.71 1017.16 1017.24 1017.25 1017.50
1016.69 1016.79 1016.55 1016.76 1016.67 1016.70 1016.66 1016.93 1016.95 1016.85 1016.86 1016.92 1017.18 1017.03 1017.05 1017.15 1017.21 1017.26 1017.38 1017.15 1017.01 1016.87 1016.82 1016.77 1016.61 1016.60 1016.67 1016.77 1016.62 1016.67 1016.66 1016.48 1015.98 1016.63 1016.90 1016.69 1016.54 1016.62 1016.66 1016.82 1017.01 1016.95 1017.18
1016.76 1016.68 1016.65 1016.71 1016.82 1016.89 1017.12 1017.38 1017.18 1017.45 1017.38 1017.23 1017.36 1017.06 1017.04 1017.14 1017.36 1017.43 1017.32 1017.06 1017.07 1017.02 1016.93 1016.71 1016.64 1016.56 1016.60 1016.62 1016.74 1016.94 1016.75 1016.50 1016.49 1017.06 1016.71 1016.74 1016.84 1016.62 1016.31 1016.59 1016.79 1017.16 1017.26
1016.21 1016.57 1016.79 1016.75 1016.62 1016.82 1017.05 1017.08 1017.26 1017.36 1017.36 1017.45 1017.46 1017.38 1017.34 1017.43 1017.47 1017.50 1017.45 1017.33 1017.23 1017.12 1017.19 1017.04 1016.93 1016.86 1016.70 1016.82 1016.70 1016.75 1016.41 1016.53 1016.77 1016.80 1016.68 1016.63 1016.74 1016.42 1016.44 1016.62 1016.55 1016.99 1017.35
1016.30 1016.59 1016.59 1016.49 1016.64 1016.89 1016.84 1017.11 1017.27 1017.21 1017.24 1017.41 1017.32 1017.37 1017.60 1017.72 1017.74 1017.82 1017.80 1017.65 1017.66 1017.46 1017.36 1017.36 1017.20 1017.02 1016.98 1016.84 1016.83 1016.84 1016.72 1016.73 1016.83 1016.89 1016.73 1016.61 1016.20 1016.11 1016.37 1016.40 1016.52 1016.75 1017.09
1016.65 1016.61 1016.84 1016.75 1016.89 1016.97 1017.25 1017.51 1017.56 1017.54 1017.59 1017.64 1017.64 1017.68 1017.76 1017.84 1017.85 1017.90 1017.97 1017.98 1017.95 1017.84 1017.77 1017.79 1017.71 1017.61 1017.49 1017.26 1017.09 1017.02 1017.10 1017.26 1017.30 1017.08 1016.65 1016.47 1016.24 1016.13 1016.04 1016.12 1016.32 1016.68 1016.82
1017.25 1016.98 1016.87 1017.06 1017.11 1017.20 1017.36 1017.60 1017.68 1017.77 1017.83 1017.93 1018.03 1018.13 1018.24 1018.32 1018.28 1018.30 1018.24 1018.29 1018.23 1018.18 1018.12 1018.09 1018.07 1018.01 1017.87 1017.75 1017.70 1017.63 1017.46 1017.47 1017.31 1017.22 1017.02 1016.57 1016.43 1016.07 1015.75 1015.89 1016.18 1016.52 1016.79
1017.02 1017.13 1017.02 1017.10 1017.19 1017.42 1017.43 1017.56 1017.82 1017.88 1017.85 1017.98 1018.05 1018.13 1018.18 1018.21 1018.19 1018.18 1018.16 1018.22 1018.22 1018.24 1018.30 1018.25 1018.18 1018.21 1018.18 1018.12 1017.85 1017.66 1017.48 1017.53 1017.38 1017.35 1016.91 1016.64 1016.45 1016.11 1016.10 1016.01 1016.08 1016.24 1016.60
1016.62 1016.91 1016.98 1017.04 1017.16 1017.38 1017.45 1017.58 1017.83 1017.87 1017.92 1017.93 1017.97 1018.04 1018.14 1018.14 1018.17 1018.28 1018.31 1018.25 1018.29 1018.26 1018.28 1018.31 1018.36 1018.36 1018.44 1018.39 1018.16 1017.94 1017.75 1017.51 1017.17 1016.95 1016.96 1017.14 1017.07 1016.57 1016.17 1015.74 1015.91 1016.09 1016.33
1016.64 1016.77 1016.86 1016.98 1017.29 1017.40 1017.26 1017.40 1017.55 1017.82 1017.87 1017.89 1017.89 1017.88 1018.11 1018.29 1018.30 1018.38 1018.42 1018.42 1018.51 1018.54 1018.49 1018.37 1018.34 1018.26 1018.21 1018.29 1018.32 1018.32 1018.18 1018.04 1017.90 1017.58 1017.20 1016.94 1016.91 1016.76 1016.38 1015.98 1015.75 1015.88 1015.91
1016.39 1016.63 1016.84 1016.91 1017.24 1017.16 1017.17 1017.47 1017.62 1017.79 1017.82 1017.90 1018.06 1018.03 1018.05 1018.22 1018.35 1018.41 1018.46 1018.44 1018.52 1018.60 1018.69 1018.70 1018.57 1018.41 1018.21 1018.12 1018.06 1018.03 1017.84 1017.85 1017.83 1017.66 1017.32 1017.06 1016.86 1016.74 1016.59 1016.13 1015.91 1015.75 1015.73
1016.25 1016.57 1016.68 1016.98 1017.21 1017.18 1017.40 1017.51 1017.66 1017.74 1017.81 1018.03 1018.13 1018.11 1018.02 1018.05 1018.13 1018.24 1018.28 1018.37 1018.41 1018.47 1018.61 1018.72 1018.68 1018.56 1018.50 1018.41 1018.21 1018.06 1017.98 1017.74 1017.53 1017.39 1017.25 1016.97 1016.74 1016.60 1016.35 1016.09 1015.92 1015.63 1015.52
1015.95 1016.19 1016.66 1017.08 1017.19 1017.32 1017.44 1017.52 1017.69 1017.77 1017.86 1018.00 1017.93 1017.85 1017.80 1017.88 1017.99 1018.05 1018.12 1018.18 1018.21 1018.31 1018.33 1018.38 1018.46 1018.56 1018.60 1018.39 1018.24 1018.05 1017.92 1017.71 1017.66 1017.51 1017.25 1016.88 1016.56 1016.26 1016.15 1016.13 1016.03 1015.68 1015.42
1015.89 1016.43 1016.92 1017.09 1017.16 1017.34 1017.46 1017.43 1017.53 1017.58 1017.69 1017.75 1017.76 1017.73 1017.66 1017.63 1017.70 1017.88 1017.99 1018.01 1017.84 1017.91 1018.00 1018.24 1018.42 1018.49 1018.49 1018.43 1018.35 1018.17 1017.99 1017.66 1017.53 1017.43 1017.32 1017.14 1016.82 1016.35 1015.86 1015.76 1015.69 1015.51 1015.56
1016.14 1016.60 1016.76 1016.82 1017.07 1017.20 1017.26 1017.33 1017.32 1017.27 1017.39 1017.36 1017.45 1017.48 1017.43 1017.38 1017.33 1017.47 1017.61 1017.62 1017.69 1017.79 1017.90 1018.02 1018.07 1018.15 1018.22 1018.11 1017.97 1017.84 1017.74 1017.68 1017.60 1017.37 1017.22 1017.01 1016.79 1016.58 1016.34 1015.72 1015.48 1015.29 1015.22
1016.15 1016.50 1016.55 1016.80 1016.89 1016.92 1017.08 1017.24 1017.38 1017.49 1017.43 1017.30 1017.14 1017.09 1017.00 1017.04 1017.05 1017.10 1017.15 1017.18 1017.32 1017.64 1017.68 1017.76 1017.80 1017.84 1017.87 1017.86 1017.90 1017.76 1017.57 1017.39 1017.31 1017.26 1017.21 1016.94 1016.83 1016.39 1016.14 1015.93 1015.65 1015.22 1014.98
1016.61 1016.74 1016.72 1016.87 1016.81 1017.12 1017.24 1017.44 1017.50 1017.44 1017.08 1017.02 1016.70 1016.28 1016.26 1016.26 1016.33 1016.53 1016.58 1016.67 1016.79 1017.09 1017.02 1017.25 1017.54 1017.78 1017.86 1017.83 1018.16 1018.02 1017.60 1017.21 1017.17 1017.29 1017.07 1016.96 1016.79 1016.41 1016.12 1015.79 1015.75 1015.41 1014.91
1016.83 1016.97 1017.06 1016.85 1016.74 1016.82 1016.74 1016.64 1016.80 1016.79 1016.68 1016.55 1016.05 1015.87 1015.62 1015.44 1015.39 1015.63 1015.73 1015.86 1015.91 1016.26 1016.43 1016.59 1016.89 1017.37 1017.63 1017.60 1018.01 1018.36 1018.12 1017.67 1017.46 1017.11 1017.11 1017.04 1016.85 1016.66 1016.33 1016.03 1015.71 1015.27 1014.85
1016.98 1016.90 1016.81 1016.53 1016.50 1016.52 1016.57 1016.63 1016.65 1016.70 1016.60 1016.40 1015.81 1015.48 1014.91 1014.61 1014.43 1014.57 1014.68 1014.93 1015.09 1015.45 1015.80 1015.86 1016.02 1016.58 1017.23 1017.51 1017.42 1017.68 1018.16 1018.34 1018.01 1017.23 1016.97 1016.85 1016.85 1016.78 1016.61 1016.19 1015.64 1015.12 1014.67
1016.73 1016.79 1016.81 1016.89 1016.83 1016.65 1016.71 1016.64 1016.84 1016.79 1016.52 1015.67 1015.14 1014.61 1014.14 1013.97 1013.77 1013.65 1013.73 1014.06 1014.35 1014.75 1015.41 1015.59 1015.92 1016.13 1016.33 1017.15 1017.40 1017.41 1017.58 1017.85 1018.41 1017.63 1016.88 1016.68 1016.73 1016.73 1016.51 1016.14 1015.75 1015.26 1014.79
1016.87 1017.01 1016.96 1016.84 1016.76 1016.84 1016.77 1016.66 1016.60 1016.36 1015.86 1015.10 1014.82 1014.66 1014.17 1013.78 1013.52 1013.29 1013.18 1013.50 1014.26 1014.87 1015.10 1015.49 1016.11 1016.21 1016.29 1016.71 1016.89 1017.41 1017.60 1017.78 1017.94 1018.20 1017.42 1016.73 1016.79 1016.65 1016.41 1016.10 1015.65 1015.26 1014.61
1017.34 1017.44 1017.27 1017.23 1017.12 1016.85 1016.63 1016.26 1016.31 1015.97 1015.42 1015.09 1014.60 1014.36 1013.88 1013.55 1013.29 1013.03 1013.04 1013.29 1013.64 1015.12 1015.61 1016.58 1016.74 1016.53 1016.79 1017.05 1016.69 1017.11 1017.18 1017.52 1017.68 1017.90 1017.76 1017.03 1016.78 1016.37 1016.10 1015.82 1015.63 1015.21 1014.58
Thickness
5696 5697 5694 5694 5694 5692 5695 5693 5694 5694 5686 5688 5691 5686 5684 5687 5686 5683 5682 5682 5682 5680 5678 5679 5677 5678 5675 5679 5678 5675 5674 5675 5673 5679 5680 5676 5678 5679 5682 5678 5676 5678 5678
5689 5690 5689 5688 5687 5688 5692 5687 5688 5682 5685 5684 5680 5680 5677 5680 5681 5678 5676 5672 5670 5672 5670 5668 5674 5675 5669 5671 5664 5671 5676 5672 5669 5672 5675 5676 5676 5674 5675 5674 5671 5673 5674
5689 5692 5685 5686 5679 5685 5684 5682 5679 5682 5681 5679 5674 5674 5669 5670 5670 5669 5670 5667 5667 5665 5665 5666 5667 5666 5662 5669 5667 5666 5664 5671 5667 5663 5666 5668 5673 5674 5672 5670 5669 5670 5670
5680 5684 5680 5685 5682 5676 5683 5678 5677 5676 5676 5674 5670 5667 5665 5665 5665 5662 5658 5657 5659 5660 5660 5662 5662 5660 5657 5661 5662 5667 5660 5661 5662 5658 5659 5659 5666 5671 5668 5664 5666 5667 5668
5680 5679 5676 5680 5678 5675 5674 5672 5670 5671 5668 5666 5662 5661 5660 5657 5658 5655 5653 5650 5649 5653 5655 5654 5655 5653 5650 5651 5654 5655 5652 5653 5663 5648 5649 5653 5659 5665 5664 5663 5663 5667 5668
5676 5675 5675 5673 5672 5670 5669 5665 5665 5665 5662 5660 5656 5656 5654 5651 5650 5648 5645 5645 5645 5646 5647 5646 5648 5649 5647 5645 5646 5645 5645 5644 5650 5643 5641 5646 5652 5656 5658 5660 5661 5665 5667
5671 5671 5670 5669 5667 5665 5660 5656 5657 5654 5653 5653 5649 5650 5648 5646 5643 5642 5642 5642 5640 5640 5640 5641 5642 5643 5642 5641 5640 5636 5639 5640 5640 5635 5638 5639 5640 5648 5653 5656 5658 5657 5659
5672 5668 5665 5664 5663 5661 5658 5657 5653 5651 5648 5646 5644 5643 5642 5639 5638 5637 5636 5636 5635 5634 5633 5635 5636 5636 5637 5634 5635 5636 5639 5638 5634 5634 5633 5634 5635 5643 5646 5649 5654 5652 5652
5668 5665 5664 5663 5660 5658 5657 5653 5650 5649 5647 5643 5641 5640 5636 5634 5632 5630 5629 5629 5628 5628 5628 5627 5628 5630 5630 5630 5630 5631 5632 5632 5630 5629 5629 5631 5634 5637 5639 5643 5648 5648 5647
5662 5662 5660 5660 5657 5654 5650 5645 5644 5642 5640 5638 5636 5634 5632 5631 5629 5627 5625 5623 5622 5623 5623 5622 5622 5622 5623 5625 5625 5625 5624 5621 5620 5623 5627 5628 5630 5633 5635 5639 5642 5643 5643
5658 5659 5658 5655 5653 5651 5648 5643 5641 5640 5638 5636 5634 5632 5630 5628 5627 5625 5622 5620 5619 5618 5617 5615 5614 5614 5615 5616 5615 5614 5616 5615 5615 5614 5618 5623 5625 5628 5632 5632 5635 5635 5637
5659 5657 5659 5655 5653 5650 5646 5643 5639 5637 5636 5633 5630 5628 5626 5625 5624 5622 5620 5617 5614 5613 5611 5610 5608 5607 5607 5608 5610 5611 5613 5612 5614 5614 5618 5619 5621 5623 5623 5627 5629 5632 5632
5664 5660 5659 5656 5652 5648 5645 5643 5640 5636 5634 5631 5629 5626 5623 5621 5620 5617 5615 5613 5611 5608 5607 5605 5604 5603 5601 5600 5601 5604 5606 5607 5611 5611 5612 5610 5609 5614 5618 5623 5624 5625 5626
5662 5659 5657 5654 5651 5648 5646 5643 5640 5635 5632 5630 5626 5623 5619 5616 5613 5610 5608 5605 5603 5601 5600 5599 5597 5596 5596 5594 5592 5591 5592 5593 5595 5599 5603 5605 5606 5608 5609 5613 5617 5619 5622
5662 5659 5654 5650 5646 5645 5643 5640 5636 5632 5628 5625 5621 5617 5614 5611 5608 5605 5602 5598 5595 5593 5591 5590 5590 5588 5587 5587 5587 5586 5586 5585 5586 5587 5593 5596 5598 5598 5601 5603 5605 5610 5613
5662 5657 5653 5649 5643 5641 5637 5634 5630 5627 5624 5619 5615 5612 5609 5606 5603 5600 5596 5592 5589 5587 5583 5580 5578 5578 5577 5576 5576 5577 5577 5578 5580 5581 5583 5586 5589 5591 5593 5596 5596 5599 5603
5660 5657 5651 5645 5641 5638 5633 5629 5624 5621 5617 5613 5610 5606 5603 5599 5596 5593 5589 5585 5582 5579 5576 5573 5570 5567 5566 5566 5566 5567 5567 5568 5568 5570 5572 5576 5579 5583 5584 5585 5586 5589 5593
5662 5654 5647 5644 5639 5634 5630 5626 5621 5616 5611 5607 5603 5599 5595 5592 5587 5584 5581 5578 5576 5573 5569 5564 5560 5557 5555 5553 5552 5552 5555 5557 5558 5559 5559 5561 5564 5570 5575 5576 5577 5580 5580
5657 5649 5644 5640 5634 5629 5625 5620 5616 5612 5608 5604 5598 5593 5588 5584 5580 5575 5571 5567 5564 5561 5557 5554 5550 5546 5543 5542 5542 5541 5541 5542 5543 5545 5546 5548 5550 5552 5555 5562 5567 5570 5571
5649 5642 5638 5631 5626 5621 5617 5612 5606 5600 5597 5594 5591 5586 5582 5577 5572 5568 5563 5558 5553 5547 5543 5540 5537 5533 5530 5528 5526 5526 5526 5526 5527 5528 5530 5533 5535 5539 5541 5544 5547 5555 5559
5643 5637 5631 5625 5619 5611 5606 5602 5599 5594 5591 5586 5583 5580 5575 5569 5563 5558 5554 5548 5542 5537 5534 5529 5523 5517 5513 5510 5507 5506 5508 5509 5508 5507 5509 5513 5517 5522 5525 5528 5530 5535 5541
5635 5629 5622 5618 5613 5606 5602 5599 5594 5588 5584 5580 5575 5569 5565 5561 5555 5548 5543 5537 5533 5527 5523 5519 5514 5506 5499 5495 5491 5484 5485 5487 5486 5489 5490 5493 5496 5498 5504 5508 5512 5516 5523
5626 5621 5617 5613 5608 5602 5595 5587 5581 5577 5572 5569 5567 5563 5561 5557 5552 5545 5539 5532 5526 5519 5513 5509 5506 5500 5489 5480 5479 5473 5464 5461 5463 5471 5472 5472 5473 5477 5479 5485 5492 5497 5502
5622 5617 5610 5602 5597 5592 5585 5579 5572 5567 5565 5563 5560 5557 5555 5550 5544 5539 5533 5524 5516 5508 5497 5492 5486 5479 5473 5463 5457 5455 5451 5446 5439 5448 5455 5455 5453 5454 5458 5464 5469 5475 5481
5611 5603 5597 5591 5585 5578 5571 5564 5558 5553 5551 5554 5550 5544 5542 5539 5534 5529 5522 5514 5502 5492 5483 5473 5463 5458 5453 5445 5439 5431 5427 5422 5421 5418 5430 5440 5438 5438 5439 5443 5448 5453 5460
5593 5587 5583 5576 5569 5564 5560 5557 5550 5545 5544 5540 5537 5530 5528 5522 5517 5512 5504 5495 5487 5469 5460 5446 5440 5438 5431 5424 5423 5415 5411 5406 5402 5398 5398 5413 5415 5423 5424 5427 5429 5433 5439